Flag for China Weather past 2 weeks in Shenzhen, Guangdong, China

Now
86 °F

Passing clouds.


Feels Like: 97 °F
Forecast: 78 / 89 °F
Wind: 8 mph from Southeast

Location: Shenzhen Airport

Current Time: Sep 3, 2015 at 11:02:05 AM

Latest Report: Sep 3, 2015 at 10:00 AM


Visibility: N/A

Pressure: 29.95 "Hg

Humidity: 75%

Dew point: 77 °F

Location of ShenzhenLocation

Historic Weather in Shenzhen — Graph

°F

Shenzhen temperature yesterday

Maximum temperature yesterday: 82 °F (at 12:00 AM)
Minimum temperature yesterday: 79 °F (at 2:00 AM)
Average temperature yesterday: 81 °F

Past Weeks' High & Low Weather Summary

 TemperatureHumidityPressure
High97 °F (Aug 25, 3:00 PM)94% (Aug 29, 1:00 AM)29.95 "Hg (Aug 29, 1:00 AM)
Low79 °F (Aug 31, 6:00 AM)34% (Aug 25, 3:00 PM)29.47 "Hg (Aug 22, 4:00 PM)
Average85 °F77%29.69 "Hg
* Reported Aug 19 10:00 AM — Sep 3 10:00 AM, Shenzhen, Weather by CustomWeather, © 2015

Note: Actual official high and low records may vary slightly from our data, if they occured in-between our weather recording intervals... More about our weather records

Advertising

Shenzhen weather history for previous 24 hours

 ConditionsComfort  
Time TempWeatherWind HumidityBarometerVisibility
10:00 AM
Thu, Sep 3
86 °FPassing clouds.8 mph75%29.95 "HgN/A
9:00 AM84 °FPassing clouds.8 mph79%29.92 "HgN/A
8:00 AM82 °FSunny.8 mph84%29.92 "Hg10 mi
7:00 AM82 °FPassing clouds.3 mph79%29.89 "HgN/A
6:00 AM81 °FPassing clouds.6 mph84%29.86 "HgN/A
5:00 AM81 °FPassing clouds.6 mph84%29.86 "HgN/A
4:00 AM81 °FPassing clouds.6 mph84%29.86 "HgN/A
3:00 AM79 °FClear.3 mph84%29.86 "Hg10 mi
2:00 AM81 °FClear.6 mph84%29.86 "Hg10 mi
1:00 AM79 °FPassing clouds.3 mph89%29.89 "HgN/A
12:00 AM79 °FClear.8 mph89%29.89 "Hg10 mi
11:00 PM
Wed, Sep 2
81 °FPassing clouds.6 mph84%29.89 "HgN/A
10:00 PM81 °FPassing clouds.6 mph84%29.89 "HgN/A
9:00 PM81 °FClear.8 mph84%29.89 "Hg10 mi
8:00 PM81 °FPassing clouds.6 mph84%29.86 "HgN/A
7:00 PM81 °FPassing clouds.6 mph84%29.83 "HgN/A
6:00 PM81 °FPartly sunny.6 mph84%29.80 "HgN/A
5:00 PM82 °FPartly sunny.8 mph79%29.80 "HgN/A
4:00 PM82 °FScattered clouds.8 mph79%29.80 "HgN/A
3:00 PM82 °FScattered clouds.10 mph84%29.83 "HgN/A
2:00 PM81 °FSprinkles. Scattered clouds.10 mph94%29.86 "HgN/A
1:00 PM82 °FScattered clouds.10 mph84%29.86 "HgN/A
12:00 PM82 °FScattered clouds.10 mph84%29.86 "HgN/A
11:00 AM82 °FScattered clouds.10 mph84%29.86 "HgN/A
Weather by CustomWeather, © 2015

See weather overviewHow to use our weather pages